K9JWM Weather Reports


Display with metric or nautical units.
time (UTC)temp
F
wind
direction
speed
MPH
gust
MPH
rain 1hr
in
rain 24hr
in
rain mn
in
humidity
%
barometer
mb
20260506002004 41 279 2.0 12.0 0.00 0.00 0.00 56 1010.5
20260506001711 41 253 2.0 3.0 0.00 0.00 0.00 55 1010.5
20260506001004 42 346 6.0 13.0 0.00 0.00 0.00 55 1010.3
20260506000211 42 276 5.0 9.0 0.00 0.00 0.00 53 1010.2
20260505235004 42 318 5.0 14.0 0.00 0.00 0.00 55 1010.1
20260505234710 42 272 6.0 6.0 0.00 0.00 0.00 53 1010.1
20260505234004 42 296 5.0 13.0 0.00 0.00 0.00 58 1010.0
20260505233209 42 264 7.0 9.0 0.00 0.00 0.00 57 1010.0
20260505233005 42 255 8.0 15.0 0.00 0.00 0.00 55 1010.0
20260505232004 42 258 3.0 9.0 0.00 0.00 0.00 53 1009.9
20260505231709 42 304 3.0 5.0 0.00 0.00 0.00 56 1009.8
20260505231004 42 340 4.0 13.0 0.00 0.00 0.00 51 1009.9
20260505230209 42 320 1.0 6.0 0.00 0.00 0.00 55 1009.8
20260505230004 42 291 2.0 12.0 0.00 0.00 0.00 55 1009.8
20260505225005 42 317 5.0 14.0 0.00 0.00 0.00 53 1009.9
20260505224710 42 287 8.0 12.0 0.00 0.00 0.00 50 1009.9
20260505224004 42 267 9.0 15.0 0.00 0.00 0.00 52 1009.8
20260505223209 42 304 5.0 3.0 0.00 0.00 0.00 51 1009.8
20260505223005 43 314 3.0 10.0 0.00 0.00 0.00 54 1009.8
20260505222004 42 290 4.0 12.0 0.00 0.00 0.00 50 1009.8
20260505221710 43 273 5.0 8.0 0.00 0.00 0.00 51 1009.8
20260505221004 43 254 3.0 15.0 0.00 0.00 0.00 49 1009.7
20260505220210 43 314 8.0 13.0 0.00 0.00 0.00 50 1009.7
20260505215004 43 265 8.0 14.0 0.00 0.00 0.00 51 1009.8
20260505214709 43 256 7.0 14.0 0.00 0.00 0.00 53 1009.7
20260505214004 42 291 5.0 18.0 0.00 0.00 0.00 54 1009.7
20260505213209 42 281 7.0 12.0 0.00 0.00 0.00 52 1009.7
20260505213005 42 273 6.0 14.0 0.00 0.00 0.00 51 1009.7
20260505212005 42 245 5.0 17.0 0.00 0.00 0.00 52 1009.7
20260505211710 42 264 9.0 13.0 0.00 0.00 0.00 52 1009.7
20260505211004 42 258 9.0 20.0 0.00 0.00 0.00 53 1009.6
20260505210210 42 262 10.0 20.0 0.00 0.00 0.00 57 1009.6
20260505210004 42 256 9.0 15.0 0.00 0.00 0.00 52 1009.6
20260505205004 41 262 6.0 20.0 0.00 0.00 0.00 53 1009.7
20260505204709 41 260 10.0 12.0 0.00 0.00 0.00 54 1009.6
20260505204004 42 257 9.0 16.0 0.00 0.00 0.00 52 1009.5
20260505203210 42 281 7.0 12.0 0.00 0.00 0.00 54 1009.5
20260505203005 42 266 10.0 20.0 0.00 0.00 0.00 54 1009.6
20260505202004 41 275 10.0 20.0 0.00 0.00 0.00 55 1009.8
20260505201709 40 256 8.0 12.0 0.00 0.00 0.00 54 1009.6
20260505201004 41 277 7.0 18.0 0.00 0.00 0.00 52 1009.5
20260505200209 41 266 5.0 12.0 0.00 0.00 0.00 53 1009.6
20260505195004 40 247 12.0 18.0 0.00 0.00 0.00 57 1009.6
20260505194708 40 277 7.0 13.0 0.00 0.00 0.00 56 1009.6
20260505194005 40 242 10.0 17.0 0.00 0.00 0.00 59 1009.5
20260505193209 40 259 9.0 16.0 0.00 0.00 0.00 57 1009.6
20260505193005 40 261 8.0 15.0 0.00 0.00 0.00 60 1009.6
20260505192005 39 248 13.0 18.0 0.00 0.00 0.00 59 1009.5
20260505191710 39 262 9.0 13.0 0.00 0.00 0.00 54 1009.5
20260505190210 39 260 6.0 9.0 0.00 0.00 0.00 57 1009.6
20260505185005 39 269 9.0 15.0 0.00 0.00 0.00 55 1009.4
20260505184710 39 271 7.0 15.0 0.00 0.00 0.00 55 1009.5
20260505184004 39 272 11.0 16.0 0.00 0.00 0.00 59 1009.4
20260505183209 39 273 8.0 13.0 0.00 0.00 0.00 58 1009.4
20260505183004 38 246 7.0 13.0 0.00 0.00 0.00 57 1009.4
20260505182005 38 263 6.0 17.0 0.00 0.00 0.00 55 1009.4
20260505181710 38 276 6.0 9.0 0.00 0.00 0.00 55 1009.4
20260505181004 38 269 5.0 16.0 0.00 0.00 0.00 56 1009.3
20260505180210 37 263 10.0 13.0 0.00 0.00 0.00 58 1009.2
20260505180004 37 278 5.0 18.0 0.00 0.00 0.00 59 1009.2
20260505175004 37 266 12.0 21.0 0.00 0.00 0.00 61 1009.4
20260505174710 37 263 7.0 18.0 0.00 0.00 0.00 62 1009.2
20260505174005 37 261 10.0 20.0 0.00 0.00 0.00 59 1009.3
20260505173209 37 248 8.0 15.0 0.00 0.00 0.00 63 1009.3
20260505173004 36 257 6.0 18.0 0.00 0.00 0.00 61 1009.2
20260505172004 36 260 8.0 13.0 0.00 0.00 0.00 60 1009.1
20260505171708 36 253 6.0 12.0 0.00 0.00 0.00 61 1009.2
20260505171005 36 274 9.0 15.0 0.00 0.00 0.00 64 1009.2
20260505170210 36 253 8.0 12.0 0.00 0.00 0.00 62 1009.2
20260505164708 36 248 10.0 16.0 0.00 0.00 0.00 61 1008.8
20260505164004 36 262 5.0 12.0 0.00 0.00 0.00 62 1009.0
20260505163210 35 277 6.0 12.0 0.00 0.00 0.00 60 1008.8
20260505163004 36 291 8.0 17.0 0.00 0.00 0.00 61 1008.8
20260505161709 36 257 10.0 12.0 0.00 0.00 0.00 62 1008.6
20260505161004 36 267 10.0 18.0 0.00 0.00 0.00 63 1008.7
20260505160210 36 273 6.0 18.0 0.00 0.00 0.00 62 1008.5
20260505153208 36 272 3.0 8.0 0.00 0.00 0.00 61 1008.1
20260505152005 36 308 7.0 13.0 0.00 0.00 0.00 60 1007.8
20260505151710 37 317 6.0 8.0 0.00 0.00 0.00 59 1007.7
20260505150209 37 264 6.0 10.0 0.00 0.00 0.00 62 1007.6
20260505140210 35 311 8.0 12.0 0.00 0.00 0.00 65 1007.1
20260505130210 34 290 5.0 12.0 0.00 0.00 0.00 71 1006.3
20260505125004 34 274 4.0 17.0 0.00 0.00 0.00 71 1006.1
20260505124709 34 260 5.0 12.0 0.00 0.00 0.00 71 1006.1
20260505124004 34 272 6.0 17.0 0.00 0.00 0.00 72 1006.0
20260505123209 34 292 8.0 17.0 0.00 0.00 0.00 73 1005.9
20260505122004 34 275 6.0 14.0 0.00 0.00 0.00 78 1005.6
20260505121710 34 272 7.0 9.0 0.00 0.00 0.00 77 1005.6
20260505121003 34 252 5.0 13.0 0.00 0.00 0.00 78 1005.4
20260505120208 34 267 6.0 8.0 0.00 0.00 0.00 79 1005.4
20260505115004 34 265 7.0 14.0 0.00 0.00 0.00 76 1005.2
20260505114709 34 270 3.0 8.0 0.00 0.00 0.00 76 1005.2
20260505114004 34 256 5.0 13.0 0.00 0.00 0.00 77 1005.0
20260505113209 34 267 6.0 10.0 0.00 0.00 0.00 77 1005.0
20260505113004 34 255 6.0 10.0 0.00 0.00 0.00 75 1004.9
20260505112004 34 262 6.0 10.0 0.00 0.00 0.00 76 1004.8
20260505111710 34 258 6.0 7.0 0.00 0.00 0.00 75 1004.7
20260505110209 35 267 6.0 7.0 0.00 0.00 0.00 76 1004.4
20260505102004 35 259 6.0 8.0 0.00 0.00 0.00 75 1004.2
20260505101709 35 267 6.0 7.0 0.00 0.00 0.00 74 1004.1
20260505100209 35 264 3.0 7.0 0.00 0.00 0.00 72 1004.1
20260505100004 35 246 6.0 7.0 0.00 0.00 0.00 72 1004.0
20260505094710 36 255 3.0 6.0 0.00 0.00 0.00 72 1003.8
20260505094004 36 271 5.0 9.0 0.00 0.00 0.00 73 1003.9
20260505093209 36 248 3.0 6.0 0.00 0.00 0.00 71 1003.7
20260505093004 36 253 5.0 7.0 0.00 0.00 0.00 70 1003.6
20260505092004 36 256 3.0 5.0 0.00 0.00 0.00 69 1003.6
20260505091709 36 266 2.0 3.0 0.00 0.00 0.00 68 1003.5
20260505091004 36 266 3.0 5.0 0.00 0.00 0.00 68 1003.4
20260505090210 37 267 2.0 3.0 0.00 0.00 0.00 68 1003.3
20260505085004 37 259 3.0 5.0 0.00 0.00 0.00 71 1003.1
20260505084709 37 257 1.0 3.0 0.00 0.00 0.00 68 1003.0
20260505084004 37 269 1.0 3.0 0.00 0.00 0.00 68 1003.1
20260505083208 37 265 2.0 2.0 0.00 0.00 0.00 67 1003.1
20260505081709 38 269 3.0 5.0 0.00 0.00 0.00 67 1002.8
20260505080210 38 252 3.0 6.0 0.00 0.00 0.00 63 1002.7
20260505080004 38 249 4.0 6.0 0.00 0.00 0.00 64 1002.8
20260505075003 38 277 2.0 5.0 0.00 0.00 0.00 62 1002.7
20260505074709 39 275 3.0 5.0 0.00 0.00 0.00 62 1002.7
20260505074004 39 253 2.0 7.0 0.00 0.00 0.00 61 1002.7
20260505073208 39 265 3.0 5.0 0.00 0.00 0.00 62 1002.7
20260505072003 39 260 6.0 12.0 0.00 0.00 0.00 61 1002.7
20260505071709 39 258 3.0 6.0 0.00 0.00 0.00 61 1002.7
20260505070209 39 266 5.0 8.0 0.00 0.00 0.00 60 1002.7
20260505070003 39 254 6.0 9.0 0.00 0.00 0.00 61 1002.8
20260505065003 40 286 7.0 14.0 0.00 0.00 0.00 61 1002.7
20260505064709 40 270 6.0 14.0 0.00 0.00 0.00 62 1002.8
20260505063208 40 267 7.0 12.0 0.00 0.00 0.00 60 1002.7
20260505062004 40 263 5.0 15.0 0.00 0.00 0.00 60 1002.7
20260505061710 40 262 7.0 6.0 0.00 0.00 0.00 58 1002.7
20260505061004 40 259 8.0 13.0 0.00 0.00 0.00 58 1002.7
20260505060208 41 260 7.0 10.0 0.00 0.00 0.00 59 1002.6
20260505060004 41 270 8.0 13.0 0.00 0.00 0.00 58 1002.7
20260505054709 41 262 7.0 10.0 0.00 0.00 0.00 58 1002.5
20260505054003 41 255 8.0 13.0 0.00 0.00 0.00 60 1002.4
20260505053208 41 258 5.0 6.0 0.00 0.00 0.00 57 1002.5
20260505053004 41 261 6.0 9.0 0.00 0.00 0.00 59 1002.5
20260505052004 41 278 7.0 12.0 0.00 0.00 0.00 59 1002.3
20260505051709 41 262 5.0 9.0 0.00 0.00 0.00 58 1002.4
20260505051004 41 264 5.0 13.0 0.00 0.00 0.00 59 1002.4
20260505050210 41 259 5.0 8.0 0.00 0.00 0.00 60 1002.3
20260505041708 41 258 5.0 8.0 0.00 0.00 0.00 58 1002.4
20260505041004 41 265 8.0 12.0 0.00 0.00 0.00 58 1002.3
20260505040210 41 253 5.0 7.0 0.00 0.00 0.00 61 1002.4
20260505040004 41 263 6.0 10.0 0.00 0.00 0.00 61 1002.3
20260505035004 41 263 5.0 10.0 0.00 0.00 0.00 59 1002.4
20260505034709 41 259 7.0 8.0 0.00 0.00 0.00 57 1002.4
20260505034004 41 264 6.0 9.0 0.00 0.00 0.00 55 1002.3
20260505033209 41 249 5.0 5.0 0.00 0.00 0.00 58 1002.3
20260505033003 41 268 6.0 12.0 0.00 0.00 0.00 57 1002.3
20260505032004 42 258 7.0 12.0 0.00 0.00 0.00 54 1002.2
20260505031710 42 265 7.0 9.0 0.00 0.00 0.00 56 1002.3
20260505030209 42 260 7.0 8.0 0.00 0.00 0.00 55 1002.1
20260505030004 42 265 7.0 13.0 0.00 0.00 0.00 56 1002.1
20260505025004 42 263 9.0 15.0 0.00 0.00 0.00 54 1002.1
20260505024709 42 280 6.0 13.0 0.00 0.00 0.00 55 1002.1
20260505024004 42 257 5.0 14.0 0.00 0.00 0.00 55 1002.1
20260505023208 42 274 7.0 10.0 0.00 0.00 0.00 54 1002.0
20260505023004 42 256 7.0 12.0 0.00 0.00 0.00 53 1002.0
20260505022003 43 254 7.0 15.0 0.00 0.00 0.00 54 1001.8
20260505021708 43 267 9.0 15.0 0.00 0.00 0.00 59 1001.8
20260505021003 43 263 7.0 16.0 0.00 0.00 0.00 54 1001.6
20260505020210 43 264 10.0 14.0 0.00 0.00 0.00 57 1001.7
20260505020004 43 252 7.0 15.0 0.00 0.00 0.00 54 1001.6
20260505015004 43 260 6.0 12.0 0.00 0.00 0.00 55 1001.4
20260505014709 43 269 8.0 12.0 0.00 0.00 0.00 53 1001.3
20260505014004 43 277 9.0 18.0 0.00 0.00 0.00 54 1001.3
20260505013208 43 253 8.0 15.0 0.00 0.00 0.00 52 1001.2
20260505013003 44 262 9.0 23.0 0.00 0.00 0.00 55 1001.2
20260505012003 44 269 12.0 26.0 0.00 0.00 0.00 53 1001.1
20260505011708 44 265 12.0 14.0 0.00 0.00 0.00 53 1001.0
20260505010210 44 276 10.0 22.0 0.00 0.00 0.00 54 1000.7
20260505010005 44 269 15.0 26.0 0.00 0.00 0.00 52 1000.5
20260505005005 44 257 9.0 16.0 0.00 0.00 0.00 53 1000.4
20260505004710 44 287 7.0 10.0 0.00 0.00 0.00 55 1000.4
20260505003211 45 282 12.0 17.0 0.00 0.00 0.00 50 1000.4
20260505003005 45 274 14.0 28.0 0.00 0.00 0.00 50 1000.4